[[{"header":{"parameterUnit":"m.s-1","parameterCategory":2,"la1":30.2991,"la2":30.254,"lo1":-89.0895,"lo2":-89.0444,"dy":0.0017,"dx":0.0017,"nx":28,"ny":28,"refTime":"2023-10-21T03:00:00:Z","depth":"0","parameterNumber":2,"parameterNumberName":"U-component_of_CURRENTS"},"data":[0,0,0,0,0,0,0,0,0,0,0,0,0,0,0,0,0,0,0,0,0,0,0,0,0,0,0,0,0,0,0,0,0,0,0,0,0,0,0,0,0,0,0,0,0,0,0,0,0,0,0,0,0,0,0,0,0,0,-0.3006,-0.3007,0,-0.2956,-0.2955,-0.2954,-0.2892,-0.2892,-0.2891,-0.2891,-0.279,-0.2788,-0.2785,0,0,0,0,0,0,0,0,0,0,0,0,0,-0.2993,-0.2993,-0.3006,-0.3007,-0.3007,-0.2957,-0.2955,-0.2954,-0.2892,-0.2892,-0.2891,-0.2891,-0.2791,-0.2788,-0.2785,0,0,0,0,0,0,0,0,0,0,0,0,0,-0.297,-0.2993,-0.3006,-0.2975,-0.2972,-0.2957,-0.2955,-0.2954,-0.2892,-0.2892,-0.2891,-0.2891,-0.2792,-0.2788,-0.2785,-0.2773,0,0,-0.2774,-0.2772,0,0,0,0,0,0,0,0,-0.2971,-0.297,-0.2979,-0.2977,-0.2974,-0.2936,-0.2914,-0.2893,-0.2892,-0.2915,-0.2891,-0.289,-0.2839,-0.2832,-0.2814,-0.2768,-0.2764,-0.2773,-0.2771,-0.277,-0.2769,0,0,0,0,0,0,0,-0.2973,-0.2971,-0.2979,-0.298,-0.2976,-0.2945,-0.294,-0.2909,-0.2874,-0.2913,-0.291,-0.2916,-0.2836,-0.2818,-0.2811,-0.2762,-0.2774,-0.277,-0.2768,-0.2767,-0.264,-0.2639,0,0,0,0,0,0,-0.2997,-0.2973,-0.2981,-0.2979,-0.2979,-0.2946,-0.2941,-0.2943,-0.2875,-0.2867,-0.2916,-0.2913,-0.2824,-0.2815,-0.2807,-0.2766,-0.277,-0.2766,-0.2764,-0.2641,-0.264,-0.2638,0,0,0,0,0,0,-0.2997,-0.2998,-0.2983,-0.298,-0.2977,-0.2948,-0.295,-0.2942,-0.2922,-0.288,-0.2869,-0.2905,-0.2823,-0.2812,-0.2772,-0.2763,-0.2765,-0.2762,-0.2643,-0.2641,-0.2639,-0.2699,0,0,0,0,0,0,-0.2997,-0.2998,-0.2996,-0.2982,-0.2979,-0.2986,-0.2951,-0.2942,-0.2931,-0.2926,-0.2867,-0.2857,-0.2822,-0.2778,-0.2769,-0.2758,-0.2759,-0.2644,-0.2642,-0.264,-0.2698,-0.2699,-0.27,0,0,0,0,0,-0.2996,-0.3006,-0.2996,-0.2997,-0.298,-0.2987,-0.2982,-0.2954,-0.2931,-0.293,-0.2879,-0.2859,-0.2756,-0.2774,-0.2764,-0.2752,-0.2645,-0.2642,-0.264,-0.2698,-0.2699,-0.27,0,0,0,0,0,0,-0.2998,-0.3001,-0.2989,-0.2998,-0.2998,-0.298,-0.2974,-0.2958,-0.2916,-0.2902,-0.2853,-0.284,-0.2796,-0.2763,-0.2785,-0.2703,-0.2693,-0.2688,-0.274,-0.2741,-0.2742,-0.2732,-0.2756,0,0,0,0,0,-0.3001,-0.3004,-0.3007,-0.3012,-0.3014,-0.2992,-0.2986,-0.2972,-0.2944,-0.2924,-0.2883,-0.2826,-0.2776,-0.2753,-0.2706,-0.2674,-0.2638,-0.2652,-0.2653,-0.2654,-0.2636,-0.2607,-0.2604,-0.2629,-0.2629,-0.2629,0,0,-0.3004,-0.3005,-0.3007,-0.3012,-0.3002,-0.2993,-0.2985,-0.2985,-0.2966,-0.292,-0.2872,-0.2832,-0.2766,-0.2722,-0.2699,-0.2696,-0.2624,-0.2651,-0.2653,-0.2633,-0.2604,-0.2601,-0.26,-0.2627,-0.2628,-0.2628,0,0,-0.3002,-0.3014,-0.3005,-0.3008,-0.3007,-0.2999,-0.3004,-0.2987,-0.297,-0.2936,-0.2884,-0.2839,-0.2774,-0.2721,-0.2686,-0.2661,-0.2629,-0.2647,-0.2647,-0.2621,-0.2619,-0.2617,-0.2561,-0.2554,-0.265,-0.265,-0.265,0,-0.2999,-0.2978,-0.3006,-0.2995,-0.2984,-0.3002,-0.2979,-0.2979,-0.2947,-0.2917,-0.2926,-0.2799,-0.2766,-0.2684,-0.268,-0.2664,-0.2638,-0.2659,-0.2626,-0.2623,-0.262,-0.2562,-0.2554,-0.2652,-0.2652,-0.2652,-0.2651,0,-0.297,-0.2959,-0.2961,-0.2943,-0.295,-0.2939,-0.2952,-0.2947,-0.2933,-0.2907,-0.2843,-0.2802,-0.2722,-0.2712,-0.2693,-0.2642,-0.2625,-0.2636,-0.2635,-0.2622,-0.2561,-0.2551,-0.2656,-0.2655,-0.2654,-0.2653,0,0,-0.29,-0.2932,-0.2917,-0.2895,-0.2911,-0.2903,-0.2907,-0.288,-0.2855,-0.2839,-0.2791,-0.2723,-0.2707,-0.2665,-0.2641,-0.2626,-0.2598,-0.2632,-0.263,-0.2594,-0.252,-0.238,-0.2355,-0.2622,-0.262,-0.2619,-0.2483,0,-0.2838,-0.28,-0.2842,-0.2797,-0.2762,-0.2811,-0.2811,-0.2804,-0.2802,-0.2779,-0.2746,-0.2699,-0.269,-0.2669,-0.2649,-0.2633,-0.2574,-0.2631,-0.2519,-0.2514,-0.2408,-0.234,-0.2199,-0.2055,-0.2473,-0.2472,-0.247,0,-0.2729,-0.272,-0.2663,-0.2687,-0.2683,-0.2674,-0.2657,-0.2678,-0.2685,-0.2689,-0.2655,-0.2652,-0.2621,-0.2634,-0.2559,-0.2606,-0.2543,-0.2521,-0.2515,-0.2352,-0.2355,-0.2133,-0.202,-0.2037,-0.2454,-0.2456,-0.2457,0,-0.2554,-0.2575,-0.2516,-0.2516,-0.256,-0.2546,-0.2584,-0.2604,-0.2635,-0.2636,-0.2655,-0.2607,-0.2605,-0.2555,-0.2498,-0.2548,-0.2407,-0.2472,-0.2253,-0.2242,-0.2075,-0.2051,-0.1974,-0.2355,-0.2355,-0.2356,-0.2356,0,-0.2394,-0.235,-0.2429,-0.2377,-0.2355,-0.2429,-0.2421,-0.2461,-0.2531,-0.254,-0.2597,-0.2562,-0.2594,-0.2529,-0.2475,-0.2308,-0.237,-0.2211,-0.2186,-0.2087,-0.2067,-0.2036,-0.2085,-0.235,-0.2352,-0.2353,-0.2353,0,-0.2165,-0.2218,-0.2168,-0.222,-0.2255,-0.2225,-0.2373,-0.2405,-0.2471,-0.2497,-0.2512,-0.2543,-0.2441,-0.2406,-0.2304,-0.2253,-0.2073,-0.2021,-0.1882,-0.1841,-0.1702,-0.1758,-0.1628,-0.1586,-0.1809,-0.1804,-0.18,0,-0.2043,-0.1982,-0.2039,-0.2073,-0.2095,-0.2132,-0.221,-0.2334,-0.2399,-0.2434,-0.2446,-0.2368,-0.2171,-0.1983,-0.1915,-0.1746,-0.1812,-0.1564,-0.1622,-0.1626,-0.1674,-0.176,-0.1744,-0.1428,-0.1421,-0.1416,-0.1412,0,-0.1817,-0.1837,-0.183,-0.1911,-0.1977,-0.2051,-0.2161,-0.2179,-0.2311,-0.2253,-0.208,-0.1886,-0.1738,-0.1466,-0.1355,-0.1296,-0.155,-0.1448,-0.1497,-0.1375,-0.1419,-0.1388,-0.1589,-0.1364,-0.1369,-0.1373,-0.1375,-0.1377,-0.1677,-0.165,-0.1697,-0.1774,-0.187,-0.192,-0.1871,-0.1957,-0.1886,-0.1721,-0.1661,-0.1244,-0.1106,-0.0887,-0.0898,-0.0981,-0.1112,-0.1,-0.1068,-0.1156,-0.1105,-0.1172,-0.0901,-0.0903,-0.0904,-0.0906,-0.0907,0,-0.1503,-0.1541,-0.161,-0.1679,-0.1728,-0.1807,-0.1831,-0.1707,-0.147,-0.1286,-0.0967,-0.0481,-0.0347,-0.0418,-0.0588,-0.0625,-0.0704,-0.0687,-0.0811,-0.0814,-0.0882,-0.0855,-0.0507,-0.0507,-0.0507,-0.0507,-0.0507,-0.0507,-0.1426,-0.1424,-0.1494,-0.153,-0.1572,-0.1462,-0.1371,-0.115,-0.0947,-0.0412,-0.0045,0.0195,0.01,-0.0268,-0.0529,-0.0563,-0.0648,-0.0582,-0.0696,-0.0795,-0.0833,-0.0869,-0.0856,-0.0514,-0.0514,-0.058,-0.058,-0.0581]},{"header":{"parameterUnit":"m.s-1","parameterCategory":2,"la1":30.2991,"la2":30.254,"lo1":-89.0895,"lo2":-89.0444,"dy":0.0017,"dx":0.0017,"nx":28,"ny":28,"refTime":"2023-10-21T03:00:00:Z","depth":"0","parameterNumber":3,"parameterNumberName":"V-component_of_CURRENTS"},"data":[0,0,0,0,0,0,0,0,0,0,0,0,0,0,0,0,0,0,0,0,0,0,0,0,0,0,0,0,0,0,0,0,0,0,0,0,0,0,0,0,0,0,0,0,0,0,0,0,0,0,0,0,0,0,0,0,0,0,-0.0667,-0.0666,0,-0.0615,-0.0614,-0.0614,-0.0548,-0.0547,-0.0546,-0.0545,-0.0417,-0.0415,-0.0412,0,0,0,0,0,0,0,0,0,0,0,0,0,-0.0694,-0.0694,-0.0667,-0.0666,-0.0665,-0.0615,-0.0614,-0.0614,-0.0548,-0.0547,-0.0545,-0.0544,-0.0418,-0.0415,-0.0412,0,0,0,0,0,0,0,0,0,0,0,0,0,-0.0666,-0.0694,-0.0667,-0.0626,-0.0622,-0.0615,-0.0614,-0.0613,-0.0548,-0.0547,-0.0545,-0.0543,-0.0419,-0.0415,-0.0412,-0.0422,0,0,-0.0401,-0.0399,0,0,0,0,0,0,0,0,-0.0668,-0.0665,-0.0633,-0.0629,-0.0624,-0.0586,-0.0577,-0.0546,-0.0549,-0.0577,-0.0545,-0.0543,-0.0467,-0.046,-0.0455,-0.0416,-0.0411,-0.04,-0.0398,-0.0397,-0.0396,0,0,0,0,0,0,0,-0.067,-0.0667,-0.0646,-0.0632,-0.0627,-0.0606,-0.06,-0.0571,-0.0531,-0.0574,-0.0569,-0.0563,-0.0464,-0.0459,-0.0451,-0.0409,-0.04,-0.0397,-0.0395,-0.0394,-0.0272,-0.0271,0,0,0,0,0,0,-0.0679,-0.0669,-0.0648,-0.0645,-0.0642,-0.0607,-0.06,-0.06,-0.0532,-0.0521,-0.0565,-0.0561,-0.0466,-0.0456,-0.0447,-0.0429,-0.0397,-0.0393,-0.0391,-0.0273,-0.0272,-0.027,0,0,0,0,0,0,-0.0679,-0.0678,-0.065,-0.0655,-0.065,-0.0608,-0.0608,-0.06,-0.0589,-0.0526,-0.0513,-0.0561,-0.0464,-0.0452,-0.0424,-0.0424,-0.0392,-0.0388,-0.0274,-0.0273,-0.0271,-0.0409,0,0,0,0,0,0,-0.0681,-0.0678,-0.0688,-0.0656,-0.065,-0.065,-0.0609,-0.06,-0.0588,-0.0582,-0.0519,-0.0506,-0.0462,-0.0429,-0.042,-0.0418,-0.0386,-0.0276,-0.0274,-0.0272,-0.0406,-0.0412,-0.0418,0,0,0,0,0,-0.0682,-0.0707,-0.0689,-0.0686,-0.0663,-0.0651,-0.0647,-0.0611,-0.059,-0.0593,-0.0551,-0.0507,-0.0407,-0.0428,-0.0416,-0.0413,-0.0277,-0.0274,-0.0272,-0.0403,-0.0411,-0.0418,0,0,0,0,0,0,-0.0724,-0.0701,-0.0681,-0.0697,-0.0675,-0.064,-0.0645,-0.0619,-0.0592,-0.0584,-0.0521,-0.0506,-0.0466,-0.042,-0.0443,-0.0362,-0.0324,-0.0319,-0.0427,-0.0434,-0.044,-0.0509,-0.0383,0,0,0,0,0,-0.0739,-0.0748,-0.0717,-0.0728,-0.0721,-0.0684,-0.0677,-0.0653,-0.0622,-0.0608,-0.0563,-0.0502,-0.045,-0.043,-0.0373,-0.0359,-0.0291,-0.0335,-0.0341,-0.0347,-0.039,-0.032,-0.0326,-0.0262,-0.0262,-0.0263,0,0,-0.0758,-0.0747,-0.0752,-0.0738,-0.0718,-0.0734,-0.0676,-0.0672,-0.0687,-0.0599,-0.0602,-0.0525,-0.0446,-0.0416,-0.0393,-0.0382,-0.0307,-0.0344,-0.035,-0.0391,-0.0319,-0.0326,-0.0332,-0.0261,-0.0261,-0.0261,0,0,-0.0815,-0.0791,-0.0824,-0.0812,-0.0792,-0.0771,-0.0773,-0.0739,-0.0725,-0.0714,-0.0641,-0.0583,-0.0512,-0.0464,-0.0427,-0.0434,-0.0335,-0.0385,-0.0492,-0.0423,-0.043,-0.0435,-0.0279,-0.027,-0.0399,-0.0399,-0.0399,0,-0.0842,-0.0883,-0.0831,-0.0859,-0.0875,-0.0796,-0.0846,-0.0817,-0.0778,-0.0782,-0.0725,-0.0613,-0.054,-0.0515,-0.0511,-0.0454,-0.0373,-0.0482,-0.0438,-0.0442,-0.0445,-0.0285,-0.0273,-0.0405,-0.0404,-0.0404,-0.0403,0,-0.0922,-0.0957,-0.0975,-0.099,-0.0992,-0.1018,-0.0978,-0.0974,-0.0934,-0.0898,-0.085,-0.0742,-0.0686,-0.0624,-0.058,-0.0557,-0.047,-0.0451,-0.0439,-0.0461,-0.0288,-0.0273,-0.0414,-0.0412,-0.041,-0.0409,0,0,-0.0985,-0.1033,-0.104,-0.1094,-0.1074,-0.1096,-0.1115,-0.1127,-0.1136,-0.1056,-0.1064,-0.0955,-0.088,-0.0834,-0.0737,-0.0678,-0.059,-0.0596,-0.0589,-0.0475,-0.0375,-0.0293,-0.0266,-0.0575,-0.0575,-0.0575,-0.0219,0,-0.1075,-0.1193,-0.1178,-0.1286,-0.1349,-0.1301,-0.1327,-0.1312,-0.1251,-0.122,-0.1105,-0.1043,-0.0961,-0.0913,-0.0854,-0.0646,-0.057,-0.0684,-0.0344,-0.0332,-0.0287,-0.0255,-0.0212,0.0106,-0.0204,-0.0201,-0.0199,0,-0.1163,-0.1243,-0.1385,-0.1474,-0.1494,-0.1535,-0.1572,-0.1576,-0.1495,-0.1441,-0.1365,-0.1236,-0.1124,-0.1046,-0.0762,-0.0838,-0.0649,-0.0483,-0.0465,-0.0352,-0.0227,0.0068,0.0146,0.0244,-0.0175,-0.0177,-0.0179,0,-0.1263,-0.1384,-0.1524,-0.1551,-0.1623,-0.1685,-0.1706,-0.1657,-0.1634,-0.1567,-0.1493,-0.1367,-0.1208,-0.1041,-0.0689,-0.0733,-0.0331,-0.0337,-0.0075,-0.0061,0.0057,0.0078,0.0226,-0.0177,-0.0178,-0.0179,-0.018,0,-0.1368,-0.1469,-0.1594,-0.1665,-0.1813,-0.181,-0.1879,-0.1876,-0.179,-0.1682,-0.1609,-0.1424,-0.1202,-0.0921,-0.0703,-0.0303,-0.033,-0.0091,0.0011,0.0024,0.0037,0.0192,0.0216,-0.0166,-0.0169,-0.0171,-0.0174,0,-0.1438,-0.1513,-0.1686,-0.1826,-0.1865,-0.197,-0.1977,-0.1967,-0.1899,-0.1742,-0.1709,-0.1423,-0.1039,-0.0779,-0.0378,-0.0234,0.0179,0.0215,0.0259,0.0353,0.0595,0.0611,0.0866,0.0985,0.0521,0.0525,0.0528,0,-0.1471,-0.1583,-0.1804,-0.1887,-0.1955,-0.2063,-0.2077,-0.2042,-0.1946,-0.165,-0.1525,-0.1166,-0.0774,-0.0207,0.0044,0.0408,0.0465,0.0634,0.0501,0.0612,0.0706,0.0686,0.0764,0.0674,0.0678,0.0681,0.0684,0,-0.1559,-0.1661,-0.1811,-0.1978,-0.206,-0.2086,-0.2067,-0.1988,-0.1808,-0.1614,-0.1161,-0.0836,-0.0309,0.0148,0.0508,0.0697,0.0687,0.0712,0.0803,0.0798,0.0812,0.0976,0.0498,0.0714,0.0711,0.0709,0.0707,0.0706,-0.1613,-0.1744,-0.1927,-0.207,-0.2112,-0.2003,-0.1901,-0.1748,-0.1504,-0.104,-0.0831,-0.0272,0.0208,0.0738,0.0874,0.1084,0.1024,0.1134,0.1153,0.113,0.1175,0.0784,0.1097,0.1096,0.1095,0.1095,0.1094,0,-0.1657,-0.18,-0.1963,-0.2063,-0.1995,-0.2015,-0.179,-0.1549,-0.1118,-0.0749,-0.0305,0.0393,0.0833,0.1131,0.1412,0.1507,0.1485,0.1544,0.1503,0.157,0.123,0.1159,0.1525,0.1525,0.1525,0.1525,0.1524,0.1524,-0.169,-0.1868,-0.1962,-0.1902,-0.1873,-0.1621,-0.1403,-0.1024,-0.0682,0.0016,0.0474,0.0802,0.1268,0.1563,0.1786,0.1812,0.1936,0.1886,0.1978,0.1685,0.1646,0.1608,0.1545,0.1986,0.1986,0.2306,0.2309,0.2311]}],[{"header":{"parameterUnit":"m.s-1","parameterCategory":2,"la1":30.2991,"la2":30.254,"lo1":-89.0895,"lo2":-89.0444,"dy":0.0017,"dx":0.0017,"nx":28,"ny":28,"refTime":"2023-10-21T03:00:00:Z","depth":"2","parameterNumber":2,"parameterNumberName":"U-component_of_CURRENTS"},"data":[0,0,0,0,0,0,0,0,0,0,0,0,0,0,0,0,0,0,0,0,0,0,0,0,0,0,0,0,0,0,0,0,0,0,0,0,0,0,0,0,0,0,0,0,0,0,0,0,0,0,0,0,0,0,0,0,0,0,-0.2448,-0.2449,0,-0.2515,-0.2516,-0.2517,-0.2559,-0.2559,-0.2559,-0.2559,-0.2661,-0.2664,-0.2667,0,0,0,0,0,0,0,0,0,0,0,0,0,-0.2356,-0.2358,-0.2448,-0.2449,-0.2449,-0.2515,-0.2516,-0.2518,-0.2559,-0.2559,-0.2559,-0.2559,-0.2661,-0.2664,-0.2667,0,0,0,0,0,0,0,0,0,0,0,0,0,-0.2411,-0.2359,-0.2448,-0.2475,-0.2478,-0.2515,-0.2516,-0.2518,-0.2559,-0.2559,-0.2559,-0.2559,-0.2659,-0.2664,-0.2668,-0.2697,0,0,-0.2681,-0.2683,0,0,0,0,0,0,0,0,-0.2408,-0.2415,-0.2471,-0.2474,-0.2477,-0.2525,-0.2521,-0.2578,-0.256,-0.2533,-0.2559,-0.2559,-0.2617,-0.2625,-0.2642,-0.2702,-0.2706,-0.2681,-0.2684,-0.2685,-0.2687,0,0,0,0,0,0,0,-0.2404,-0.2412,-0.2479,-0.2471,-0.2475,-0.2484,-0.2492,-0.2532,-0.2579,-0.2535,-0.2537,-0.2539,-0.2619,-0.2638,-0.2645,-0.2708,-0.2681,-0.2685,-0.2687,-0.2689,-0.2746,-0.2745,0,0,0,0,0,0,-0.2388,-0.2409,-0.2477,-0.248,-0.2437,-0.2485,-0.2494,-0.2513,-0.2577,-0.2586,-0.2539,-0.254,-0.2631,-0.264,-0.2649,-0.2665,-0.2685,-0.2689,-0.2692,-0.2747,-0.2746,-0.2744,0,0,0,0,0,0,-0.2387,-0.2395,-0.2474,-0.2442,-0.2452,-0.2486,-0.2508,-0.2514,-0.254,-0.2579,-0.2589,-0.2557,-0.2631,-0.2643,-0.2674,-0.267,-0.2691,-0.2695,-0.2748,-0.2746,-0.2745,-0.2712,0,0,0,0,0,0,-0.2384,-0.2394,-0.2399,-0.2441,-0.2453,-0.2495,-0.2508,-0.2516,-0.2539,-0.2542,-0.2598,-0.2607,-0.2632,-0.2668,-0.2678,-0.2676,-0.2698,-0.2749,-0.2747,-0.2746,-0.2714,-0.2709,-0.2705,0,0,0,0,0,-0.2381,-0.2392,-0.24,-0.2407,-0.2461,-0.2495,-0.2502,-0.2528,-0.254,-0.2551,-0.2578,-0.2606,-0.2662,-0.2671,-0.2684,-0.2683,-0.275,-0.2748,-0.2746,-0.2716,-0.271,-0.2705,0,0,0,0,0,0,-0.2355,-0.2398,-0.2407,-0.2431,-0.2457,-0.25,-0.2509,-0.2532,-0.2565,-0.2566,-0.2607,-0.2618,-0.2633,-0.2662,-0.2671,-0.2688,-0.2706,-0.2706,-0.2679,-0.2674,-0.2669,-0.2674,-0.2702,0,0,0,0,0,-0.235,-0.2371,-0.2408,-0.2425,-0.2437,-0.2475,-0.249,-0.251,-0.2543,-0.2558,-0.2596,-0.2622,-0.2633,-0.2658,-0.2673,-0.2705,-0.2702,-0.2705,-0.2701,-0.2697,-0.2706,-0.2683,-0.2677,-0.2737,-0.2737,-0.2737,0,0,-0.2342,-0.2368,-0.2379,-0.242,-0.2443,-0.2467,-0.2486,-0.251,-0.253,-0.2564,-0.2601,-0.2609,-0.2633,-0.2647,-0.2658,-0.2678,-0.2673,-0.2694,-0.2691,-0.2703,-0.268,-0.2674,-0.2669,-0.2735,-0.2736,-0.2736,0,0,-0.2336,-0.2363,-0.2375,-0.2402,-0.2433,-0.2458,-0.2466,-0.2511,-0.2528,-0.2558,-0.2569,-0.2573,-0.2622,-0.2628,-0.2637,-0.2622,-0.2638,-0.2626,-0.2629,-0.2605,-0.2601,-0.2597,-0.2564,-0.2558,-0.2638,-0.2638,-0.2638,0,-0.2322,-0.2351,-0.2382,-0.2403,-0.2423,-0.2456,-0.2475,-0.25,-0.2548,-0.256,-0.2561,-0.259,-0.2607,-0.2617,-0.2604,-0.2613,-0.2602,-0.2651,-0.26,-0.2596,-0.2593,-0.2561,-0.2554,-0.2636,-0.2636,-0.2637,-0.2637,0,-0.2325,-0.2352,-0.2363,-0.2404,-0.2429,-0.2451,-0.2487,-0.2511,-0.2529,-0.2551,-0.2558,-0.2566,-0.2587,-0.2579,-0.2593,-0.2578,-0.2577,-0.2585,-0.2617,-0.2585,-0.2553,-0.2546,-0.2634,-0.2634,-0.2635,-0.2635,0,0,-0.2283,-0.2351,-0.2353,-0.2378,-0.2432,-0.2455,-0.2485,-0.2519,-0.254,-0.2554,-0.257,-0.2565,-0.2568,-0.2577,-0.2583,-0.2568,-0.2517,-0.2573,-0.2573,-0.2545,-0.2459,-0.2334,-0.2315,-0.2521,-0.252,-0.2519,-0.2439,0,-0.2273,-0.2311,-0.235,-0.2389,-0.2414,-0.2461,-0.2493,-0.2527,-0.2549,-0.2573,-0.2562,-0.2573,-0.2569,-0.2573,-0.2553,-0.2536,-0.2502,-0.2538,-0.2491,-0.249,-0.2386,-0.2303,-0.2138,-0.2043,-0.2433,-0.2432,-0.2431,0,-0.2256,-0.2289,-0.232,-0.2394,-0.2408,-0.2434,-0.2489,-0.2522,-0.2559,-0.2576,-0.2582,-0.2587,-0.2573,-0.2562,-0.2509,-0.2536,-0.2492,-0.2466,-0.2463,-0.2358,-0.2352,-0.2141,-0.2016,-0.242,-0.2421,-0.2422,-0.2423,0,-0.2202,-0.2269,-0.2292,-0.2316,-0.2397,-0.2416,-0.2458,-0.2512,-0.2548,-0.2574,-0.2598,-0.2583,-0.2575,-0.2528,-0.2469,-0.2496,-0.2389,-0.2421,-0.226,-0.2251,-0.2107,-0.2086,-0.2355,-0.2356,-0.2356,-0.2356,-0.2356,0,-0.2176,-0.2193,-0.2268,-0.2279,-0.2309,-0.2384,-0.242,-0.2461,-0.2529,-0.2568,-0.2592,-0.2596,-0.2566,-0.2512,-0.2458,-0.2317,-0.2373,-0.2234,-0.2211,-0.2086,-0.2065,-0.2404,-0.2411,-0.2353,-0.2354,-0.2354,-0.2355,0,-0.2101,-0.2154,-0.2181,-0.2258,-0.228,-0.2296,-0.2396,-0.2438,-0.2508,-0.2558,-0.257,-0.2596,-0.2508,-0.2445,-0.235,-0.2285,-0.2177,-0.2109,-0.1953,-0.1911,-0.2065,-0.2072,-0.1938,-0.1932,-0.1928,-0.1924,-0.1921,0,-0.2063,-0.207,-0.2135,-0.2156,-0.2184,-0.2235,-0.2285,-0.2392,-0.2474,-0.2546,-0.2584,-0.2512,-0.2429,-0.2228,-0.2075,-0.1907,-0.2016,-0.1692,-0.1703,-0.2026,-0.2018,-0.2031,-0.2043,-0.15,-0.1494,-0.1489,-0.1485,0,-0.1981,-0.2,-0.2022,-0.2055,-0.2101,-0.2165,-0.2268,-0.2304,-0.2443,-0.2471,-0.2442,-0.2351,-0.2176,-0.1898,-0.1708,-0.1605,-0.1708,-0.1579,-0.1936,-0.1628,-0.1605,-0.1601,-0.1628,-0.1438,-0.1443,-0.1446,-0.1449,-0.1451,-0.1905,-0.1891,-0.1916,-0.1933,-0.2009,-0.206,-0.2043,-0.2158,-0.218,-0.2166,-0.2236,-0.2029,-0.1957,-0.1522,-0.1376,-0.1222,-0.1357,-0.1304,-0.1323,-0.1348,-0.1308,-0.1277,-0.1041,-0.1044,-0.1045,-0.1047,-0.1049,0,-0.18,-0.1792,-0.1803,-0.1831,-0.1877,-0.1941,-0.2016,-0.1962,-0.1896,-0.1894,-0.1819,-0.1528,-0.1338,-0.1224,-0.0908,-0.0843,-0.0873,-0.0805,-0.0868,-0.0911,-0.0951,-0.0896,-0.0518,-0.0516,-0.0515,-0.0514,0,0,-0.1744,-0.1692,-0.1679,-0.1671,-0.1714,-0.167,-0.1649,-0.1556,-0.1519,-0.1304,-0.1181,-0.1297,-0.1229,-0.0932,-0.0829,-0.062,-0.0775,-0.0569,-0.099,-0.1112,-0.1152,-0.122,-0.118,0,0,0,0,0]},{"header":{"parameterUnit":"m.s-1","parameterCategory":2,"la1":30.2991,"la2":30.254,"lo1":-89.0895,"lo2":-89.0444,"dy":0.0017,"dx":0.0017,"nx":28,"ny":28,"refTime":"2023-10-21T03:00:00:Z","depth":"2","parameterNumber":3,"parameterNumberName":"V-component_of_CURRENTS"},"data":[0,0,0,0,0,0,0,0,0,0,0,0,0,0,0,0,0,0,0,0,0,0,0,0,0,0,0,0,0,0,0,0,0,0,0,0,0,0,0,0,0,0,0,0,0,0,0,0,0,0,0,0,0,0,0,0,0,0,-0.0368,-0.0367,0,-0.0284,-0.0283,-0.0282,-0.0222,-0.0221,-0.0221,-0.0221,-0.0063,-0.0059,-0.0055,0,0,0,0,0,0,0,0,0,0,0,0,0,-0.043,-0.043,-0.0368,-0.0367,-0.0366,-0.0284,-0.0283,-0.0282,-0.0222,-0.0221,-0.0221,-0.0221,-0.0064,-0.0059,-0.0055,0,0,0,0,0,0,0,0,0,0,0,0,0,-0.0379,-0.0429,-0.0368,-0.0328,-0.0324,-0.0285,-0.0283,-0.0281,-0.0222,-0.0221,-0.0221,-0.022,-0.0066,-0.006,-0.0054,-0.0027,0,0,-0.0036,-0.0034,0,0,0,0,0,0,0,0,-0.0382,-0.0376,-0.0335,-0.0331,-0.0326,-0.0265,-0.0247,-0.0193,-0.0222,-0.0258,-0.0221,-0.022,-0.0125,-0.0114,-0.0098,-0.002,-0.0013,-0.0036,-0.0032,-0.003,-0.0028,0,0,0,0,0,0,0,-0.0386,-0.0379,-0.0333,-0.0334,-0.0329,-0.0299,-0.0291,-0.0237,-0.0192,-0.0255,-0.0251,-0.0245,-0.0122,-0.0104,-0.0093,-0.0011,-0.0036,-0.0031,-0.0027,-0.0025,0.011,0.011,0,0,0,0,0,0,-0.0403,-0.0383,-0.0336,-0.0331,-0.0356,-0.0298,-0.029,-0.0283,-0.0194,-0.0182,-0.0246,-0.0243,-0.0114,-0.01,-0.0088,-0.0036,-0.003,-0.0024,-0.0021,0.011,0.011,0.011,0,0,0,0,0,0,-0.0404,-0.0399,-0.0339,-0.0356,-0.0347,-0.0298,-0.0291,-0.0282,-0.0265,-0.0188,-0.0174,-0.0239,-0.0113,-0.0096,-0.0041,-0.003,-0.0021,-0.0016,0.011,0.011,0.011,0.0058,0,0,0,0,0,0,-0.0407,-0.0401,-0.0404,-0.0358,-0.0347,-0.0322,-0.0292,-0.0281,-0.0263,-0.0258,-0.0178,-0.0163,-0.0111,-0.0051,-0.0036,-0.0022,-0.0011,0.011,0.011,0.011,0.006,0.0057,0.0054,0,0,0,0,0,-0.0409,-0.0415,-0.0405,-0.0399,-0.0352,-0.0322,-0.0313,-0.0276,-0.0263,-0.0258,-0.0204,-0.0165,-0.0039,-0.0046,-0.0028,-0.0012,0.011,0.011,0.011,0.0061,0.0057,0.0054,0,0,0,0,0,0,-0.0442,-0.0408,-0.0396,-0.0391,-0.0363,-0.0313,-0.0306,-0.0283,-0.0238,-0.0233,-0.0162,-0.0142,-0.0095,-0.0049,-0.0058,0.0025,0.0041,0.0044,-0.0002,-0.0005,-0.0008,-0.0011,-0.0007,0,0,0,0,0,-0.0453,-0.0449,-0.0411,-0.0408,-0.0398,-0.0355,-0.034,-0.0316,-0.0271,-0.0251,-0.0194,-0.0133,-0.0081,-0.0041,0.0007,0.0059,0.0099,0.008,0.0076,0.0073,0.0082,0.0143,0.0146,0.011,0.011,0.011,0,0,-0.0467,-0.0447,-0.0446,-0.0416,-0.0391,-0.0373,-0.0344,-0.0326,-0.0304,-0.024,-0.0192,-0.0147,-0.0074,-0.0022,0.0005,0.0022,0.0101,0.0074,0.0071,0.0082,0.0143,0.0147,0.015,0.011,0.011,0.011,0,0,-0.0489,-0.0474,-0.0477,-0.0455,-0.0426,-0.0396,-0.0395,-0.0348,-0.032,-0.0275,-0.0226,-0.0174,-0.0091,-0.0032,0.0008,0.0019,0.0071,0.0029,0.003,0.0088,0.0092,0.0095,0.0135,0.0142,0.0041,0.0041,0.0041,0,-0.0508,-0.0501,-0.0473,-0.0465,-0.045,-0.0409,-0.0404,-0.0367,-0.0307,-0.0277,-0.0267,-0.0145,-0.0091,-0.001,-0.0009,0.0015,0.0046,0.0037,0.0084,0.0089,0.0094,0.0133,0.0142,0.0039,0.0039,0.0039,0.004,0,-0.0522,-0.0519,-0.0519,-0.0493,-0.0473,-0.0465,-0.0414,-0.0387,-0.0352,-0.0306,-0.0235,-0.0162,-0.0084,-0.0063,-0.0028,0.0035,0.0044,0.006,0.0092,0.0094,0.0135,0.0146,0.0035,0.0036,0.0037,0.0037,0,0,-0.056,-0.0536,-0.0536,-0.0533,-0.049,-0.0476,-0.0438,-0.0386,-0.0352,-0.0291,-0.0234,-0.015,-0.0111,-0.0064,-0.0012,0.0044,0.0095,0.0064,0.0068,0.0099,0.021,0.0238,0.0253,0.0116,0.0118,0.012,0.0219,0,-0.0582,-0.0586,-0.0557,-0.0554,-0.0554,-0.0502,-0.0467,-0.0413,-0.0354,-0.0287,-0.0202,-0.0135,-0.0108,-0.0072,-0.0012,0.0069,0.0122,0.0066,0.0207,0.0211,0.0234,0.0267,0.0232,0.0321,0.023,0.0231,0.0233,0,-0.0602,-0.0604,-0.0613,-0.0588,-0.0581,-0.0567,-0.0505,-0.0468,-0.0362,-0.0312,-0.0226,-0.0156,-0.0057,-0.0043,0.0103,0.0063,0.0131,0.019,0.0196,0.0253,0.0261,0.0308,0.0344,0.0251,0.0249,0.0248,0.0247,0,-0.0648,-0.0639,-0.0652,-0.0644,-0.0607,-0.0594,-0.0568,-0.048,-0.0442,-0.0326,-0.0279,-0.0154,-0.0084,0.0017,0.0135,0.0123,0.0289,0.0291,0.0383,0.0384,0.0402,0.0402,0.0395,0.0395,0.0395,0.0395,0.0394,0,-0.0679,-0.0687,-0.068,-0.0686,-0.0692,-0.0646,-0.0625,-0.0568,-0.0481,-0.0423,-0.0303,-0.0208,-0.0066,0.0051,0.0143,0.0298,0.0299,0.0397,0.0424,0.038,0.0378,0.0356,0.035,0.0398,0.0397,0.0397,0.0396,0,-0.0716,-0.0713,-0.073,-0.0717,-0.0717,-0.0722,-0.0686,-0.0664,-0.0569,-0.0487,-0.0452,-0.0249,-0.008,0.0051,0.0235,0.0316,0.0451,0.0501,0.0432,0.045,0.0503,0.0493,0.0624,0.0627,0.0628,0.063,0.0631,0,-0.0732,-0.0746,-0.0767,-0.0795,-0.0794,-0.0799,-0.0801,-0.0722,-0.0688,-0.0494,-0.0452,-0.0251,-0.0059,0.0217,0.0361,0.053,0.0515,0.0594,0.0577,0.0519,0.0532,0.0519,0.0507,0.057,0.057,0.0571,0.0571,0,-0.0755,-0.0764,-0.0782,-0.0856,-0.0882,-0.0906,-0.0896,-0.0876,-0.0759,-0.0633,-0.041,-0.0223,0.0069,0.0303,0.0497,0.0582,0.0562,0.0613,0.0593,0.0515,0.0476,0.0485,0.0474,0.0576,0.0575,0.0575,0.0575,0.0575,-0.0765,-0.0796,-0.0841,-0.0908,-0.0961,-0.1011,-0.0993,-0.092,-0.0816,-0.058,-0.0417,-0.0098,0.0064,0.0395,0.0535,0.0654,0.0656,0.0673,0.0668,0.0663,0.0637,0.0604,0.0722,0.0722,0.0722,0.0723,0.0723,0,-0.077,-0.0822,-0.0895,-0.0986,-0.1082,-0.1077,-0.105,-0.0983,-0.0808,-0.053,-0.0268,-0.0082,0.0197,0.0384,0.0602,0.0723,0.0687,0.0722,0.0651,0.0646,0.0641,0.0611,0.0691,0.0691,0.0691,0.0692,0,0,-0.0776,-0.084,-0.0894,-0.1073,-0.115,-0.1181,-0.1147,-0.097,-0.0746,-0.0436,-0.0177,0.0029,0.0254,0.0349,0.0484,0.0641,0.0618,0.0637,0.065,0.0549,0.0544,0.0598,0.0545,0,0,0,0,0]}],[{"header":{"parameterUnit":"m.s-1","parameterCategory":2,"la1":30.2991,"la2":30.254,"lo1":-89.0895,"lo2":-89.0444,"dy":0.0017,"dx":0.0017,"nx":28,"ny":28,"refTime":"2023-10-21T03:00:00:Z","depth":"4","parameterNumber":2,"parameterNumberName":"U-component_of_CURRENTS"},"data":[0,0,0,0,0,0,0,0,0,0,0,0,0,0,0,0,0,0,0,0,0,0,0,0,0,0,0,0,0,0,0,0,0,0,0,0,0,0,0,0,0,0,0,0,0,0,0,0,0,0,0,0,0,0,0,0,0,0,-0.171,-0.1711,0,-0.177,-0.177,-0.1771,-0.1808,-0.1809,-0.1809,-0.181,-0.189,-0.1892,-0.1893,0,0,0,0,0,0,0,0,0,0,0,0,0,-0.161,-0.1611,-0.171,-0.1711,-0.1712,-0.177,-0.177,-0.1771,-0.1808,-0.1809,-0.181,-0.181,-0.189,-0.1892,-0.1894,0,0,0,0,0,0,0,0,0,0,0,0,0,-0.1657,-0.1612,-0.1709,-0.174,-0.1744,-0.177,-0.1771,-0.1771,-0.1808,-0.1809,-0.181,-0.1811,-0.1889,-0.1891,-0.1894,-0.1893,0,0,-0.1901,-0.1902,0,0,0,0,0,0,0,0,-0.1654,-0.166,-0.1734,-0.1738,-0.1742,-0.1786,-0.1765,-0.1814,-0.1808,-0.178,-0.181,-0.1811,-0.1859,-0.1864,-0.1868,-0.1897,-0.1901,-0.1902,-0.1903,-0.1904,-0.1905,0,0,0,0,0,0,0,-0.1651,-0.1657,-0.173,-0.1736,-0.174,-0.1745,-0.1752,-0.1774,-0.1812,-0.1782,-0.1786,-0.1798,-0.1861,-0.1866,-0.187,-0.1902,-0.1901,-0.1904,-0.1905,-0.1906,-0.1987,-0.1988,0,0,0,0,0,0,-0.165,-0.1654,-0.1728,-0.1732,-0.1703,-0.1747,-0.1755,-0.1768,-0.1811,-0.182,-0.1798,-0.18,-0.1861,-0.1867,-0.1873,-0.1949,-0.1904,-0.1906,-0.1908,-0.1987,-0.1987,-0.1988,0,0,0,0,0,0,-0.1648,-0.1656,-0.1726,-0.1697,-0.1707,-0.1748,-0.1762,-0.1769,-0.1807,-0.1823,-0.1831,-0.1833,-0.1862,-0.187,-0.1912,-0.195,-0.1908,-0.191,-0.1986,-0.1987,-0.1988,-0.2054,0,0,0,0,0,0,-0.1645,-0.1655,-0.1678,-0.1697,-0.1709,-0.1758,-0.1762,-0.177,-0.1813,-0.1817,-0.1856,-0.1862,-0.1863,-0.1908,-0.1914,-0.1953,-0.1912,-0.1985,-0.1986,-0.1987,-0.2051,-0.2057,-0.2063,0,0,0,0,0,-0.1641,-0.1666,-0.1678,-0.1688,-0.1734,-0.1759,-0.1765,-0.1794,-0.1814,-0.1831,-0.1856,-0.1862,-0.192,-0.1911,-0.1918,-0.1958,-0.1984,-0.1986,-0.1987,-0.2049,-0.2056,-0.2062,0,0,0,0,0,0,-0.1638,-0.1673,-0.1687,-0.1723,-0.1748,-0.1767,-0.1795,-0.1813,-0.1847,-0.1863,-0.1875,-0.1882,-0.1931,-0.193,-0.1919,-0.1981,-0.1952,-0.1955,-0.1996,-0.2004,-0.2009,-0.2001,-0.1914,0,0,0,0,0,-0.1647,-0.1676,-0.1702,-0.1735,-0.1751,-0.1779,-0.18,-0.1819,-0.1846,-0.1864,-0.1887,-0.1912,-0.1937,-0.196,-0.1974,-0.2014,-0.1985,-0.2041,-0.2047,-0.2052,-0.2048,-0.203,-0.2034,-0.1993,-0.1993,-0.1993,0,0,-0.1658,-0.168,-0.17,-0.1737,-0.1761,-0.1791,-0.1794,-0.1835,-0.1868,-0.1867,-0.1924,-0.1937,-0.195,-0.199,-0.2013,-0.2001,-0.2048,-0.2054,-0.2058,-0.2051,-0.2032,-0.2036,-0.2039,-0.1994,-0.1994,-0.1994,0,0,-0.1678,-0.1712,-0.1738,-0.1763,-0.1806,-0.1821,-0.1841,-0.1875,-0.1902,-0.1948,-0.1956,-0.1986,-0.2029,-0.204,-0.2053,-0.2097,-0.2076,-0.2112,-0.2145,-0.2129,-0.2132,-0.2134,-0.2101,-0.2099,-0.2119,-0.2119,-0.2119,0,-0.169,-0.1726,-0.175,-0.178,-0.1809,-0.184,-0.1873,-0.1903,-0.1947,-0.1968,-0.1976,-0.203,-0.2049,-0.209,-0.2109,-0.2113,-0.2091,-0.2123,-0.2136,-0.2138,-0.2139,-0.2104,-0.2102,-0.2123,-0.2122,-0.2122,-0.2122,0,-0.1716,-0.176,-0.1781,-0.1829,-0.186,-0.1897,-0.1936,-0.1974,-0.2011,-0.2032,-0.2082,-0.2096,-0.2123,-0.2142,-0.2148,-0.2176,-0.2153,-0.2144,-0.212,-0.2148,-0.2109,-0.2105,-0.2128,-0.2126,-0.2125,-0.2124,0,0,-0.1697,-0.1782,-0.1792,-0.1826,-0.1891,-0.1915,-0.1977,-0.2025,-0.2064,-0.2104,-0.214,-0.2188,-0.2189,-0.2201,-0.2209,-0.2207,-0.2206,-0.219,-0.2187,-0.2158,-0.2158,-0.1999,-0.198,-0.2204,-0.2204,-0.2204,-0.2127,0,-0.171,-0.1773,-0.1814,-0.1883,-0.1917,-0.197,-0.202,-0.2071,-0.2112,-0.2152,-0.2175,-0.2209,-0.2215,-0.2232,-0.2233,-0.2215,-0.2201,-0.2227,-0.2134,-0.213,-0.1987,-0.1971,-0.2203,-0.2124,-0.2123,-0.2123,-0.2122,0,-0.1711,-0.1757,-0.1823,-0.191,-0.1931,-0.1977,-0.2054,-0.2102,-0.2163,-0.2194,-0.2227,-0.224,-0.2261,-0.2251,-0.2224,-0.2243,-0.2205,-0.218,-0.2176,-0.1999,-0.1964,-0.209,-0.2115,-0.2116,-0.2116,-0.2117,-0.2117,0,-0.1665,-0.1761,-0.1815,-0.1846,-0.1945,-0.1989,-0.204,-0.2113,-0.2142,-0.2212,-0.2228,-0.226,-0.2258,-0.2237,-0.2191,-0.2214,-0.213,-0.215,-0.1964,-0.1953,-0.2094,-0.2092,-0.2107,-0.2107,-0.2108,-0.2108,-0.2108,0,-0.1644,-0.1692,-0.1804,-0.1832,-0.189,-0.1972,-0.2026,-0.2086,-0.2149,-0.2154,-0.2237,-0.2226,-0.2253,-0.2211,-0.2183,-0.204,-0.2115,-0.195,-0.1915,-0.2123,-0.2125,-0.2091,-0.209,-0.2105,-0.2106,-0.2106,-0.2107,0,-0.1576,-0.1656,-0.172,-0.1834,-0.1868,-0.1906,-0.1995,-0.2019,-0.2106,-0.2111,-0.2128,-0.2186,-0.2125,-0.2112,-0.2055,-0.1988,-0.19,-0.1828,-0.2029,-0.2011,-0.1743,-0.1747,-0.1624,-0.1617,-0.1612,-0.1607,-0.1603,0,-0.1543,-0.1574,-0.1694,-0.1719,-0.1772,-0.1839,-0.1867,-0.1974,-0.1979,-0.2054,-0.2026,-0.202,-0.2025,-0.1815,-0.1841,-0.174,-0.1719,-0.1674,-0.1731,-0.1711,-0.1691,-0.1703,-0.1714,-0.1595,-0.1593,-0.1592,-0.159,0,-0.147,-0.1528,-0.1575,-0.1614,-0.1658,-0.1686,-0.1733,-0.1722,-0.181,-0.192,-0.1855,-0.1819,-0.1735,-0.1691,-0.1601,-0.1548,-0.1714,-0.1617,-0.163,-0.1683,-0.1674,-0.1662,-0.1679,-0.1572,-0.1574,-0.1576,-0.1577,0,-0.141,-0.1416,-0.1468,-0.1483,-0.152,-0.1482,-0.1545,-0.1536,-0.1557,-0.1656,-0.1627,-0.164,-0.1699,-0.1586,-0.1517,-0.1432,-0.1425,-0.1402,-0.1425,-0.1447,-0.1423,-0.1388,-0.1145,0,0,0,0,0,-0.1342,-0.1317,-0.1322,-0.1308,-0.1328,-0.1333,-0.1415,-0.148,-0.1578,-0.1478,-0.1544,-0.1466,-0.138,-0.141,-0.1276,-0.142,-0.1417,-0.1262,-0.1402,-0.1467,-0.1489,-0.1476,0,0,0,0,0,0,-0.1291,-0.1299,-0.127,-0.1132,-0.108,-0.1069,-0.1112,-0.1197,-0.1157,-0.1285,-0.1244,-0.1356,-0.1288,-0.1393,-0.123,-0.1232,-0.1287,-0.1289,-0.1285,-0.1454,-0.1474,-0.1492,-0.1487,0,0,0,0,0]},{"header":{"parameterUnit":"m.s-1","parameterCategory":2,"la1":30.2991,"la2":30.254,"lo1":-89.0895,"lo2":-89.0444,"dy":0.0017,"dx":0.0017,"nx":28,"ny":28,"refTime":"2023-10-21T03:00:00:Z","depth":"4","parameterNumber":3,"parameterNumberName":"V-component_of_CURRENTS"},"data":[0,0,0,0,0,0,0,0,0,0,0,0,0,0,0,0,0,0,0,0,0,0,0,0,0,0,0,0,0,0,0,0,0,0,0,0,0,0,0,0,0,0,0,0,0,0,0,0,0,0,0,0,0,0,0,0,0,0,-0.029,-0.029,0,-0.0248,-0.0248,-0.0247,-0.0215,-0.0215,-0.0214,-0.0214,-0.0136,-0.0134,-0.0133,0,0,0,0,0,0,0,0,0,0,0,0,0,-0.0317,-0.0317,-0.0291,-0.029,-0.029,-0.0249,-0.0248,-0.0247,-0.0215,-0.0215,-0.0214,-0.0214,-0.0137,-0.0135,-0.0132,0,0,0,0,0,0,0,0,0,0,0,0,0,-0.0293,-0.0317,-0.0291,-0.0269,-0.0267,-0.0249,-0.0248,-0.0247,-0.0215,-0.0215,-0.0214,-0.0214,-0.0138,-0.0135,-0.0132,-0.0121,0,0,-0.0124,-0.0122,0,0,0,0,0,0,0,0,-0.0294,-0.0292,-0.0273,-0.0271,-0.0268,-0.0237,-0.0229,-0.0204,-0.0215,-0.0234,-0.0214,-0.0214,-0.0168,-0.0162,-0.0154,-0.0118,-0.0114,-0.0123,-0.0122,-0.012,-0.012,0,0,0,0,0,0,0,-0.0296,-0.0293,-0.0273,-0.0272,-0.027,-0.0253,-0.0249,-0.0224,-0.0202,-0.0232,-0.023,-0.0227,-0.0166,-0.0157,-0.0152,-0.0113,-0.0123,-0.0121,-0.0119,-0.0118,-0.006,-0.006,0,0,0,0,0,0,-0.0305,-0.0295,-0.0274,-0.0272,-0.0282,-0.0253,-0.0249,-0.0247,-0.0203,-0.0196,-0.0227,-0.0225,-0.0162,-0.0156,-0.0149,-0.0114,-0.012,-0.0118,-0.0116,-0.006,-0.006,-0.006,0,0,0,0,0,0,-0.0306,-0.0303,-0.0276,-0.0283,-0.0278,-0.0253,-0.0251,-0.0246,-0.0241,-0.0199,-0.0192,-0.0228,-0.0162,-0.0153,-0.0131,-0.0112,-0.0117,-0.0114,-0.006,-0.006,-0.006,-0.0056,0,0,0,0,0,0,-0.0307,-0.0304,-0.031,-0.0284,-0.0278,-0.0272,-0.0251,-0.0246,-0.024,-0.0238,-0.0197,-0.019,-0.0161,-0.0136,-0.0129,-0.0108,-0.0112,-0.006,-0.006,-0.006,-0.0056,-0.0056,-0.0056,0,0,0,0,0,-0.0308,-0.0316,-0.0311,-0.0308,-0.0286,-0.0272,-0.0268,-0.0248,-0.0241,-0.0242,-0.0215,-0.0191,-0.0132,-0.0134,-0.0125,-0.0103,-0.0059,-0.006,-0.006,-0.0056,-0.0056,-0.0056,0,0,0,0,0,0,-0.0331,-0.0313,-0.0306,-0.0309,-0.0296,-0.0267,-0.0269,-0.0255,-0.0235,-0.0234,-0.0194,-0.0184,-0.0158,-0.014,-0.0143,-0.009,-0.0091,-0.009,-0.0092,-0.0091,-0.0091,-0.0083,-0.0109,0,0,0,0,0,-0.0341,-0.0343,-0.0321,-0.0326,-0.0321,-0.0297,-0.0291,-0.0278,-0.0256,-0.0247,-0.0217,-0.0186,-0.0152,-0.0131,-0.0108,-0.0078,-0.0051,-0.006,-0.006,-0.006,-0.005,0.0015,0.0022,-0.0061,-0.0061,-0.0061,0,0,-0.0353,-0.0342,-0.0345,-0.0331,-0.0319,-0.0309,-0.0292,-0.0288,-0.0272,-0.0241,-0.0215,-0.019,-0.0149,-0.0115,-0.01,-0.0095,-0.0029,-0.0061,-0.0061,-0.005,0.0015,0.0024,0.0032,-0.0061,-0.0061,-0.0061,0,0,-0.0373,-0.0369,-0.0374,-0.0363,-0.0349,-0.033,-0.0331,-0.0307,-0.0289,-0.0267,-0.0234,-0.0196,-0.016,-0.0109,-0.0082,-0.007,-0.0038,-0.0072,-0.0051,0.0011,0.0019,0.0027,0.0049,0.0059,-0.0063,-0.0063,-0.0063,0,-0.0389,-0.0387,-0.0374,-0.0371,-0.036,-0.034,-0.0335,-0.0313,-0.0283,-0.0257,-0.0263,-0.0177,-0.0148,-0.0072,-0.0069,-0.0065,-0.0044,-0.0051,0.0014,0.0022,0.003,0.0051,0.0062,-0.0063,-0.0063,-0.0063,-0.0063,0,-0.0402,-0.0402,-0.0405,-0.0389,-0.0377,-0.0374,-0.034,-0.0324,-0.0303,-0.0268,-0.0209,-0.0164,-0.0106,-0.0091,-0.0074,-0.0,-0.0011,0.0001,0.0019,0.0039,0.0059,0.007,-0.0063,-0.0063,-0.0063,-0.0063,0,0,-0.043,-0.0417,-0.0418,-0.0413,-0.0386,-0.0378,-0.0347,-0.0303,-0.027,-0.0232,-0.0175,-0.0112,-0.0082,-0.005,-0.0016,0.0042,0.0104,0.0041,0.0045,0.0071,0.0214,0.0177,0.0186,0.0129,0.0131,0.0133,0.0197,0,-0.0443,-0.0446,-0.0428,-0.0422,-0.0419,-0.0383,-0.0353,-0.0308,-0.0264,-0.0207,-0.0134,-0.0079,-0.0067,-0.0039,0.0025,0.0082,0.0137,0.0084,0.0184,0.0186,0.016,0.02,0.0141,0.0206,0.0208,0.021,0.0211,0,-0.0454,-0.0455,-0.0458,-0.0432,-0.0425,-0.0417,-0.0359,-0.0329,-0.0238,-0.0199,-0.012,-0.0068,0.0024,0.0025,0.0154,0.0116,0.0165,0.0209,0.0213,0.0191,0.0172,0.0187,0.0232,0.023,0.0229,0.0227,0.0226,0,-0.0477,-0.047,-0.0475,-0.0469,-0.0438,-0.0427,-0.0406,-0.0331,-0.0298,-0.0194,-0.016,-0.0038,0.0007,0.0106,0.0179,0.0174,0.0307,0.0315,0.0333,0.0329,0.0341,0.0332,0.042,0.042,0.0419,0.0419,0.0419,0,-0.0485,-0.0489,-0.0494,-0.0497,-0.0497,-0.046,-0.0437,-0.039,-0.0316,-0.0284,-0.0167,-0.0122,0.003,0.0116,0.0193,0.0284,0.032,0.0348,0.0358,0.0334,0.0324,0.0347,0.0338,0.0422,0.0421,0.0421,0.042,0,-0.0499,-0.0502,-0.0515,-0.0509,-0.0513,-0.0515,-0.049,-0.0467,-0.0391,-0.0347,-0.0319,-0.0177,-0.0065,0.0074,0.0228,0.0283,0.0386,0.0409,0.0349,0.0351,0.0362,0.0352,0.0454,0.0453,0.0453,0.0453,0.0452,0,-0.05,-0.0511,-0.0544,-0.057,-0.0575,-0.0579,-0.0583,-0.0519,-0.0497,-0.0402,-0.0386,-0.0252,-0.0159,0.0034,0.0182,0.0355,0.0373,0.0421,0.0427,0.0374,0.0373,0.0364,0.0354,0.0452,0.0452,0.0452,0.0451,0,-0.0501,-0.0526,-0.0544,-0.0611,-0.0641,-0.0661,-0.0664,-0.0652,-0.0585,-0.0521,-0.0439,-0.031,-0.0175,0.0005,0.0146,0.0263,0.0394,0.0418,0.042,0.0426,0.0372,0.037,0.0361,0.045,0.045,0.045,0.0451,0,-0.051,-0.0538,-0.0587,-0.0639,-0.0691,-0.0734,-0.0725,-0.0701,-0.0664,-0.0554,-0.0545,-0.037,-0.0255,-0.0046,0.0071,0.0203,0.0241,0.0273,0.0283,0.0286,0.0222,0.0128,0.0153,0,0,0,0,0,-0.0511,-0.0555,-0.0612,-0.0679,-0.0735,-0.0764,-0.0773,-0.0752,-0.0699,-0.0658,-0.0592,-0.047,-0.0251,-0.0136,-0.0011,0.0064,0.0258,0.0213,0.0298,0.0443,0.0445,0.0396,0,0,0,0,0,0,-0.0517,-0.0571,-0.0613,-0.0704,-0.0756,-0.0813,-0.0824,-0.0792,-0.0746,-0.0677,-0.0552,-0.0462,-0.0236,-0.033,-0.0017,0.0029,0.0093,0.0334,0.0336,0.0442,0.0444,0.0445,0.0395,0,0,0,0,0]}]]